Theta_e
313 313 313 313 314 314 314 314 314 314 314 314 314 314 314 315 315 315 315 316 315 314 315 315 315 314 313 314 314 314 313 307 304 301 299 303 309 314 320 321 323 322 321 307 302 299 296 297 299 299 297 298 298 299 300 301 295 295 289 282 283 281 285 287 288 288 292 291 292 293 292 293 291 294 319 321 321 323 324 324 327 330 329 331 333 336 337 337
313 313 312 313 314 314 313 313 314 314 314 314 314 314 314 315 315 315 314 315 315 315 315 315 314 314 313 313 314 314 309 305 301 301 301 311 319 318 320 321 326 324 317 304 299 294 296 296 296 295 296 297 296 298 299 297 297 289 285 284 285 283 287 291 290 290 291 291 291 292 292 293 293 293 297 312 313 317 319 322 325 325 328 331 333 334 334 335
313 312 312 312 313 313 313 313 313 313 313 313 314 314 314 314 315 315 315 315 315 315 315 315 314 314 313 313 313 313 307 301 301 300 306 323 319 323 323 323 328 322 306 303 298 296 297 296 295 296 294 294 293 296 295 295 296 290 288 286 282 287 288 289 291 293 292 294 293 293 292 291 294 294 296 308 311 317 317 318 322 323 324 327 330 332 332 333
312 312 312 312 312 313 313 313 313 313 313 313 313 314 314 314 315 315 315 315 315 315 315 314 314 313 313 313 314 308 303 299 298 303 309 324 325 322 326 323 329 324 304 301 298 295 296 295 294 294 293 293 291 294 294 293 293 291 290 285 287 287 290 291 292 294 293 293 293 293 291 293 294 294 301 311 310 309 314 322 322 322 325 327 329 330 331 331
312 312 312 312 312 312 313 312 313 313 313 313 313 313 314 314 315 315 315 314 314 315 315 314 313 313 313 314 312 308 300 293 302 305 311 330 328 325 325 325 327 318 310 297 297 295 295 295 295 294 292 291 291 292 291 292 292 290 290 287 289 287 291 291 291 291 293 292 294 290 292 293 294 294 299 306 299 292 308 320 325 327 328 328 328 330 331 330
311 311 312 312 312 312 312 312 313 313 313 313 313 313 314 314 314 314 315 314 314 314 314 314 313 313 314 313 307 304 298 287 302 305 328 333 329 326 326 326 327 314 299 297 296 295 296 294 293 293 290 291 291 290 291 292 295 290 288 289 288 290 292 291 293 291 291 292 292 291 293 293 292 294 296 296 295 294 302 320 327 329 330 331 331 330 329 329
311 311 311 312 312 312 312 312 312 313 312 313 313 313 314 314 314 314 314 314 314 314 314 313 313 313 313 311 303 303 294 296 304 307 326 334 331 327 328 329 327 305 297 296 296 295 293 293 292 291 289 289 290 290 291 294 293 291 289 287 292 290 292 292 294 293 291 292 292 292 291 293 292 291 301 316 323 322 323 327 329 330 331 331 329 330 329 329
311 311 311 311 312 312 312 312 312 312 312 313 313 313 314 314 314 314 314 313 313 313 314 313 313 313 312 301 300 295 296 296 304 307 338 334 328 327 326 310 305 301 299 295 293 293 294 292 292 294 290 289 291 292 292 292 290 290 289 290 291 292 290 291 291 289 289 290 292 292 292 294 292 291 313 320 323 324 325 328 329 330 330 330 329 329 329 329
311 311 311 312 311 311 311 311 311 312 312 313 313 313 313 313 313 313 313 313 313 312 313 313 313 313 312 301 298 290 289 302 307 317 323 322 321 318 312 309 302 302 298 294 294 293 295 292 295 294 292 292 292 292 291 290 287 289 292 290 289 291 291 291 290 290 289 290 290 291 290 291 306 315 321 322 324 326 326 327 328 329 328 328 328 329 329 329
311 311 311 311 311 311 311 311 312 312 312 312 313 313 312 312 312 312 313 313 312 312 313 313 312 313 305 301 296 287 295 303 318 318 319 319 315 312 306 305 303 299 298 295 294 295 294 293 296 297 293 292 292 292 289 290 288 289 289 290 290 292 291 291 291 289 289 290 289 291 288 289 303 309 305 323 325 327 326 326 328 327 326 327 328 329 329 329
311 311 311 311 311 311 311 311 312 312 312 312 312 312 312 312 312 312 313 313 312 313 313 313 313 310 301 300 291 287 299 307 314 312 313 314 311 307 302 303 302 301 297 294 295 296 295 297 299 298 298 294 292 291 290 290 290 290 292 292 291 289 289 290 289 290 290 291 288 292 290 290 295 309 304 323 325 326 324 325 325 326 326 326 327 327 328 329
311 311 311 311 311 311 311 311 311 311 311 311 311 311 312 312 312 312 312 312 312 312 311 312 313 309 304 300 294 293 303 308 313 310 308 310 308 307 302 304 302 301 298 295 295 296 299 300 300 298 292 298 291 293 291 291 293 293 293 290 287 287 290 288 289 289 289 292 289 290 292 290 295 296 308 325 326 325 324 323 325 325 325 326 325 325 326 327
310 311 311 311 311 311 311 311 311 311 311 311 311 311 312 312 311 311 311 311 312 312 311 312 312 308 302 290 295 305 307 309 310 308 308 302 301 301 300 300 301 300 300 297 295 297 299 301 300 298 297 296 293 289 293 294 293 293 291 288 288 285 285 289 290 290 289 293 289 292 283 283 285 287 310 326 324 324 323 322 323 324 324 324 324 324 325 325
310 310 310 311 311 310 311 311 311 311 311 311 311 310 310 310 310 310 311 311 313 312 313 313 309 303 299 291 299 305 307 307 308 307 306 307 300 299 299 299 299 298 299 299 298 298 299 300 301 300 298 296 292 295 294 290 290 290 288 286 284 283 283 287 289 290 291 291 290 293 285 283 283 294 321 325 325 322 319 321 322 323 323 323 323 323 323 324
310 310 310 310 310 310 311 311 311 311 310 310 310 309 309 309 310 311 312 312 312 312 311 312 311 305 295 298 306 311 323 307 305 303 306 302 298 297 299 297 298 298 298 298 301 301 299 300 299 295 292 295 298 293 287 284 284 285 286 281 280 283 282 287 291 290 290 291 291 291 285 285 287 304 324 325 324 322 319 321 322 322 322 322 322 322 323 323
310 310 310 310 310 310 310 310 311 311 311 310 310 309 310 310 311 311 312 311 311 311 310 306 306 303 294 291 301 315 310 307 305 308 304 303 298 296 298 297 297 299 299 299 301 301 301 298 296 292 294 293 289 281 281 283 281 282 284 278 284 284 282 287 290 289 291 292 291 292 283 289 292 307 324 325 323 322 319 320 321 321 321 322 322 322 322 322
309 310 310 310 310 310 310 310 310 310 310 310 309 309 310 310 311 310 311 312 311 311 307 302 305 304 289 298 305 302 301 304 306 305 301 302 300 298 298 297 297 297 297 299 299 298 298 298 295 293 290 288 284 284 284 276 278 278 282 283 282 285 285 285 289 292 289 291 288 290 286 289 290 312 323 325 324 321 319 319 320 320 321 322 322 321 321 321
309 309 310 309 309 310 310 310 310 310 310 309 308 308 307 309 310 308 309 310 310 310 307 309 302 294 291 298 293 297 304 301 302 304 303 300 299 298 298 298 297 296 296 295 296 296 295 292 290 287 286 284 287 281 279 277 281 280 281 280 282 284 285 286 286 289 291 289 288 288 287 285 288 314 322 323 324 322 320 319 320 320 320 321 321 321 321 321
309 309 309 309 309 309 310 310 309 309 309 309 308 309 311 310 308 307 304 304 297 291 289 291 290 285 285 293 295 299 301 304 301 305 302 300 301 300 301 297 294 296 292 290 291 293 291 291 288 285 284 284 285 285 283 282 283 283 284 284 282 284 284 286 288 289 292 288 285 286 285 286 291 315 321 323 324 322 320 320 320 320 320 320 320 321 320 319
309 309 309 309 309 309 309 309 309 309 309 306 304 304 305 298 295 299 303 303 297 298 300 298 297 293 297 299 299 302 303 303 300 300 300 304 301 298 298 296 293 291 290 288 290 293 293 285 283 282 281 284 286 286 287 286 286 286 285 286 284 284 286 288 288 291 290 287 285 285 284 285 293 314 319 322 322 320 320 319 319 319 319 320 320 320 320 317
309 309 309 309 309 309 309 309 309 308 309 305 303 300 293 294 289 287 295 300 302 303 300 301 300 299 299 300 301 301 299 299 298 298 299 304 298 298 294 294 289 290 287 288 291 293 288 284 283 285 287 287 288 288 289 288 288 288 286 286 284 285 284 288 288 289 293 288 286 285 286 288 292 309 319 320 318 317 318 318 318 319 319 320 320 320 319 316
309 309 309 309 309 309 309 309 309 308 309 305 301 298 300 298 301 301 299 293 297 303 303 303 303 300 303 303 304 304 302 298 298 299 300 302 297 294 291 289 287 287 286 290 288 284 283 283 286 288 289 289 289 289 289 289 288 287 287 284 285 283 285 287 288 290 293 291 286 286 288 289 297 306 317 317 317 319 319 319 319 319 318 319 320 320 318 314
308 309 309 309 309 309 309 309 309 307 305 301 297 298 298 301 305 305 304 296 295 300 301 301 299 300 302 305 304 305 298 295 295 297 297 299 294 294 290 288 288 286 289 289 286 282 283 282 287 289 289 289 289 289 289 288 288 285 283 283 283 282 285 282 286 289 292 290 287 285 288 288 290 295 303 308 316 309 313 316 317 320 319 319 320 320 318 316
308 308 309 309 309 309 309 309 306 303 299 298 297 299 304 305 305 305 300 294 294 298 300 302 302 300 300 301 304 303 298 297 297 297 301 298 294 292 291 288 286 288 286 286 286 285 284 289 292 290 289 289 288 288 288 286 285 285 285 281 282 285 284 284 287 289 289 292 288 287 284 284 285 299 300 304 305 309 311 312 314 317 319 319 318 318 318 316
308 308 308 309 309 309 308 308 299 300 300 298 298 303 305 305 305 303 299 295 293 294 304 303 304 302 303 308 306 301 299 298 298 299 299 299 292 292 290 290 288 285 285 285 286 286 286 289 290 290 288 289 288 286 287 287 283 283 285 288 286 284 288 287 287 286 279 283 288 284 277 281 282 284 294 298 301 304 306 310 311 315 316 316 315 315 313 314
308 308 308 308 308 307 308 296 295 300 298 296 298 304 304 304 303 304 295 286 285 292 298 294 306 298 308 301 304 301 300 296 300 301 300 299 301 295 293 290 290 286 285 286 287 284 287 290 290 289 288 288 288 286 286 288 282 283 286 288 287 286 288 287 289 285 280 281 288 288 281 277 279 286 289 289 294 299 303 307 309 311 313 313 314 312 312 313
307 307 308 308 308 307 294 290 300 299 291 293 296 302 305 306 307 304 296 279 277 291 293 298 300 297 304 301 303 299 288 290 298 300 300 304 299 298 290 287 290 290 288 288 286 285 290 290 290 289 288 286 287 285 287 289 285 282 286 287 287 287 289 288 285 283 282 284 290 285 282 281 283 285 286 288 292 297 300 303 306 308 310 311 311 312 311 312
307 308 308 307 307 305 299 299 298 295 294 297 303 304 304 306 305 301 284 272 274 294 293 293 296 305 302 301 302 297 295 298 293 296 301 301 300 295 294 288 290 289 289 287 281 285 290 289 288 288 286 285 285 286 288 290 286 285 289 288 287 288 288 286 285 283 282 284 281 281 286 281 279 281 286 291 292 294 299 301 304 306 309 310 310 311 312 312
307 307 307 307 307 306 302 299 298 295 299 302 303 302 305 304 300 292 277 273 286 291 302 295 305 300 297 299 297 298 297 297 292 295 298 300 299 294 290 290 289 287 290 289 284 285 289 290 290 290 287 286 287 286 290 291 288 289 289 288 289 288 288 286 282 285 281 280 277 280 284 280 277 277 284 286 288 290 294 299 303 305 307 310 310 310 311 312
307 307 307 306 304 301 301 302 299 303 303 303 303 303 303 300 291 280 275 271 290 286 295 297 296 294 294 293 294 297 295 295 296 296 297 294 297 297 295 293 291 289 289 289 287 287 291 296 296 291 289 289 288 288 290 291 291 290 287 286 285 283 282 283 281 281 281 274 276 280 282 282 279 279 285 285 288 287 287 288 292 302 305 308 309 311 312 312
307 307 306 306 298 297 299 292 296 302 303 304 303 300 296 289 279 272 271 278 292 290 295 293 292 294 291 290 288 292 295 295 295 294 292 296 293 293 293 292 291 285 283 283 287 288 290 289 292 290 296 291 289 287 287 287 288 289 285 282 285 284 280 280 277 277 274 272 276 279 282 283 280 280 283 285 288 289 290 291 291 296 304 306 308 310 312 312
306 306 306 304 303 303 292 289 292 300 299 301 303 294 291 281 282 274 273 293 285 287 289 288 292 291 290 291 290 289 289 292 293 292 289 289 289 288 288 284 287 279 279 280 283 288 288 288 287 290 300 292 288 286 285 285 284 286 284 284 279 276 272 275 274 276 274 274 283 281 282 283 280 279 286 289 291 292 291 292 292 292 296 304 307 309 311 310
305 306 307 305 306 302 302 300 299 299 301 303 296 288 281 273 271 277 281 286 282 292 290 293 291 290 291 289 287 289 291 289 291 291 289 290 289 289 291 290 288 286 281 280 281 282 283 284 287 289 290 294 291 286 283 285 283 284 284 279 277 272 269 269 269 269 276 280 281 282 284 280 280 285 288 290 294 294 296 297 294 294 296 302 307 308 308 308
305 306 301 302 303 304 304 301 302 300 301 300 293 289 278 271 273 292 283 284 286 291 292 292 291 289 290 287 287 289 288 289 290 291 291 288 288 285 288 289 288 290 285 281 281 280 276 279 285 286 287 290 290 289 289 284 283 285 283 286 282 276 273 267 272 270 274 277 279 282 282 278 281 283 291 292 295 299 301 301 301 301 302 303 305 306 306 306
305 303 299 299 300 302 303 303 300 301 299 295 288 280 275 275 276 279 282 284 287 290 289 291 288 288 285 287 289 292 291 288 292 289 289 287 284 283 285 287 289 287 285 282 282 278 281 279 283 288 291 290 289 290 287 284 284 282 283 285 283 281 278 278 275 276 276 277 276 281 278 279 282 289 291 293 298 300 301 302 303 303 304 305 305 305 305 306
301 296 297 295 299 301 301 304 300 300 298 293 286 278 277 279 277 283 284 291 290 288 287 286 285 285 282 283 290 290 295 289 290 288 287 287 287 286 288 290 289 289 285 283 280 281 281 281 287 287 289 289 289 290 290 288 282 284 284 282 283 285 284 275 275 278 273 274 274 272 281 282 284 289 290 290 297 298 300 301 302 302 303 304 304 305 306 307
294 297 294 297 300 304 302 303 303 300 298 292 283 279 280 282 284 287 293 292 291 288 281 280 280 285 282 284 285 288 292 292 291 287 283 287 287 288 290 290 290 289 290 288 283 281 280 277 284 286 287 290 290 290 289 288 287 284 281 283 287 289 287 280 274 272 268 269 270 276 275 276 277 279 287 290 294 295 298 298 299 300 302 303 303 304 305 306
295 295 299 300 303 304 303 303 301 299 294 290 283 288 285 285 291 292 293 292 290 288 283 281 281 287 282 283 283 287 291 288 288 286 283 287 284 292 289 289 292 290 291 290 287 285 284 280 282 285 286 288 289 288 289 289 287 284 283 287 287 280 280 279 278 269 271 270 269 276 277 277 277 281 284 289 292 294 296 297 299 300 301 301 302 304 305 307
295 295 290 300 304 304 303 303 300 298 292 285 280 283 289 287 291 294 295 295 291 288 284 282 282 285 286 282 284 288 290 285 288 286 283 286 283 291 290 290 290 290 289 290 288 283 283 279 281 284 287 288 286 285 281 281 287 286 287 285 284 283 280 278 275 278 277 268 268 274 276 274 282 280 287 287 286 291 295 296 297 299 301 302 302 303 303 305
292 287 287 301 305 304 303 301 298 293 286 282 281 283 288 290 293 294 293 293 289 287 284 284 286 282 283 284 286 285 288 289 287 287 286 288 288 294 291 292 289 290 289 290 286 286 282 282 277 285 287 287 286 284 282 281 281 283 281 279 282 281 283 282 282 280 276 269 265 269 270 276 279 284 288 290 289 290 295 296 296 298 299 301 302 304 304 303
292 288 289 301 304 303 303 297 290 288 283 283 286 287 290 290 293 294 294 294 292 293 290 286 285 283 283 283 284 286 288 288 288 286 286 288 286 283 291 290 291 290 289 290 289 285 280 281 280 281 283 280 285 288 287 284 282 282 280 282 280 279 281 278 275 280 278 275 268 270 267 275 282 290 291 290 292 290 295 296 296 298 299 299 300 301 302 302
289 284 291 302 301 305 296 289 286 287 282 284 285 290 290 301 293 291 292 292 292 290 291 290 287 288 285 285 285 286 286 286 287 287 289 284 291 288 292 291 290 291 287 285 285 288 285 281 280 280 283 285 286 288 288 288 287 284 284 283 282 280 278 276 271 276 278 279 277 277 274 276 285 289 291 291 292 293 296 298 297 298 298 298 299 301 301 301
288 289 299 302 301 304 292 283 284 286 286 287 292 293 294 293 291 291 291 291 290 290 289 287 287 286 286 287 286 285 286 284 287 285 287 289 290 292 292 291 291 291 287 286 287 288 302 279 279 280 281 284 288 288 288 286 284 285 284 282 282 283 284 278 275 277 277 276 276 275 273 276 285 290 292 293 293 293 295 297 298 298 298 299 298 301 302 302
288 289 293 301 302 299 290 282 281 278 285 290 290 291 293 294 292 290 290 289 288 287 287 287 288 289 288 288 287 285 288 281 287 288 288 291 290 295 292 292 292 291 290 288 286 292 284 283 281 278 276 278 280 281 281 283 283 281 283 281 282 282 281 280 279 278 276 278 276 276 271 274 286 289 289 289 293 295 296 297 297 297 297 298 299 300 301 301
288 291 293 296 300 299 287 287 286 278 283 285 287 286 287 290 291 292 291 288 290 288 287 286 289 289 288 288 288 288 288 285 284 288 289 288 290 293 293 294 295 292 296 298 300 292 284 283 280 274 273 271 270 270 271 275 281 280 282 281 282 281 280 281 281 275 275 278 278 273 269 276 281 287 287 288 288 293 295 296 298 296 298 300 300 301 300 301
286 281 285 289 293 293 293 295 291 287 280 283 279 286 287 285 289 291 291 289 290 289 287 287 287 288 286 286 286 286 286 288 285 285 284 285 288 290 290 293 298 300 306 306 299 290 281 283 282 279 279 278 279 279 282 281 280 280 282 280 281 280 280 281 277 271 274 275 275 276 280 281 282 283 284 286 287 289 291 292 294 295 295 297 297 298 298 298
286 282 280 281 288 291 290 292 289 288 283 287 280 285 283 285 287 289 292 287 291 289 288 286 285 284 283 284 282 283 284 285 286 284 283 284 286 289 290 290 291 297 305 301 298 286 283 282 283 283 281 281 282 282 284 284 280 280 281 282 280 280 279 279 278 280 279 281 274 280 279 280 280 282 283 284 286 288 289 290 291 292 293 293 294 294 297 296
282 282 286 288 284 282 285 286 291 289 289 289 285 287 284 284 285 282 288 290 291 290 285 286 285 284 283 285 283 279 281 282 283 281 284 285 284 286 286 289 288 292 297 292 294 290 284 280 285 284 282 283 284 284 286 285 284 283 282 281 281 280 280 279 280 280 279 274 275 279 279 279 279 281 283 284 285 287 289 291 291 292 293 293 294 294 294 295
285 283 285 288 283 286 289 289 291 289 288 289 285 286 283 284 283 286 286 286 287 287 286 279 282 283 283 284 282 279 280 278 279 282 282 282 283 282 282 284 288 288 289 289 290 289 285 281 285 285 282 283 284 285 286 286 284 284 283 281 281 281 280 280 280 279 279 279 279 280 280 279 281 282 283 285 286 289 290 291 293 293 292 293 293 293 294 294
282 282 282 285 284 284 287 290 291 289 285 289 284 285 285 284 284 286 287 285 280 284 288 283 284 284 284 284 283 281 282 283 284 280 283 282 279 282 281 284 283 286 287 287 289 289 286 281 288 284 281 282 283 285 286 286 285 283 283 283 282 282 282 282 282 281 282 280 279 281 280 279 282 283 285 286 287 288 289 288 289 290 292 293 292 292 292 293
286 285 286 282 280 283 287 285 288 286 284 285 284 286 286 286 285 287 285 287 284 283 285 284 285 284 284 283 283 283 285 285 284 285 285 285 281 286 282 282 285 283 284 284 286 286 285 281 283 281 278 279 282 283 284 285 285 283 282 282 282 281 280 280 279 281 278 279 279 279 278 275 282 283 284 285 286 286 286 286 287 288 291 292 292 292 291 292
288 288 285 279 277 284 279 282 285 286 282 285 286 286 285 285 287 288 281 286 287 287 286 285 286 283 283 283 282 283 285 286 286 287 286 287 287 286 286 286 285 284 283 282 284 283 282 283 279 278 277 275 281 282 283 283 282 279 276 281 281 281 281 282 282 282 281 280 277 277 277 279 281 285 283 284 284 285 285 285 286 287 288 290 290 290 290 290
Wind_Speed
14 14 14 14 14 14 13 13 13 13 13 12 12 12 12 12 11 12 12 12 12 12 12 13 13 13 13 14 14 15 11 9 10 4 3 13 9 9 9 2 2 12 11 1 3 1 1 2 2 2 2 2 1 0 0 0 1 1 2 4 2 3 3 4 4 6 1 1 4 5 2 4 4 1 2 5 9 8 9 9 5 9 7 8 9 15 14 13
15 15 14 14 14 13 13 13 12 12 12 12 12 12 12 12 12 11 11 12 12 12 12 12 13 13 13 13 14 13 10 5 10 9 17 9 7 12 9 4 4 10 12 1 3 3 6 1 1 3 3 1 2 0 0 1 0 2 1 2 7 4 2 6 2 6 1 4 3 4 2 1 4 1 3 4 0 1 7 5 6 10 10 12 13 13 15 14
15 15 15 14 14 14 13 13 13 13 13 12 13 12 12 12 12 12 11 11 12 12 12 11 11 13 12 12 13 10 9 6 3 6 8 10 16 11 10 8 7 13 8 3 4 6 3 5 3 3 2 2 3 1 1 0 1 2 4 4 3 6 2 3 3 5 4 1 7 8 4 4 6 1 1 4 4 2 7 6 5 9 13 13 11 13 15 14
15 15 16 14 14 14 13 13 13 13 13 13 13 12 12 12 12 12 11 11 11 11 11 11 11 12 12 12 11 5 4 4 1 2 4 4 11 14 11 12 9 7 3 2 5 4 3 5 4 4 2 3 2 0 1 1 1 1 1 3 1 3 2 4 6 8 6 0 3 3 4 7 5 0 2 8 8 2 4 8 11 14 15 14 14 14 14 15
15 15 15 15 15 15 14 13 13 13 13 13 13 13 12 12 12 12 12 11 11 11 11 11 11 11 12 12 10 3 4 2 0 2 3 1 8 13 13 13 12 4 3 4 7 4 4 3 1 2 3 2 1 1 1 1 1 2 5 3 2 3 1 6 6 6 2 2 0 3 4 4 2 2 4 7 2 3 8 11 9 15 16 18 17 14 14 15
16 15 15 15 15 15 14 14 13 13 12 12 13 13 12 12 12 11 12 11 11 11 10 10 11 11 11 10 3 3 0 1 2 3 0 3 7 13 13 13 12 6 4 2 2 2 4 2 3 1 1 2 1 3 2 1 0 3 3 2 4 3 2 2 1 3 3 1 2 2 2 3 1 0 0 1 1 4 5 3 10 15 17 13 12 14 15 16
16 16 16 16 15 14 14 14 13 13 12 12 12 13 12 12 12 12 12 11 11 11 11 10 9 11 8 5 1 2 2 6 3 8 3 3 6 14 13 12 11 7 4 4 2 2 1 3 3 2 3 2 0 1 3 1 0 2 4 1 4 3 5 5 3 3 1 3 6 2 3 3 4 3 0 2 4 5 2 8 10 15 15 14 13 14 17 16
17 17 16 15 15 14 14 13 13 13 12 12 12 12 12 12 12 12 12 11 10 10 10 9 9 9 7 4 1 2 1 7 11 4 3 8 11 13 12 7 8 6 4 5 5 3 4 5 4 2 3 6 2 5 0 2 1 3 2 1 4 1 4 5 5 5 4 7 6 3 5 10 4 3 3 1 2 1 5 9 12 15 13 11 11 14 13 13
17 17 17 16 16 15 14 14 13 13 12 12 12 12 12 11 11 11 11 10 10 9 9 8 9 6 7 4 2 3 5 7 5 1 6 9 9 11 12 4 4 7 3 3 2 4 4 3 2 3 2 0 1 1 2 1 4 4 6 1 2 3 5 5 5 6 5 3 3 2 7 7 3 5 3 2 4 4 7 11 14 14 12 11 12 14 15 14
18 17 16 16 16 15 14 14 13 12 12 12 12 12 12 11 11 11 11 10 10 9 8 7 7 3 2 1 0 2 4 4 3 3 6 10 10 10 4 6 7 7 5 2 3 3 3 4 5 4 4 1 2 1 1 4 3 4 4 4 4 7 3 3 3 4 1 4 5 5 5 4 4 4 4 2 8 9 10 12 13 13 12 9 9 10 10 11
18 18 17 17 16 15 14 13 13 13 12 12 12 11 11 11 11 11 10 10 9 8 7 6 6 5 1 1 1 4 5 4 1 4 8 10 11 9 7 8 7 5 5 3 4 6 4 5 3 3 0 1 2 1 2 3 3 3 3 1 5 4 4 5 2 10 0 4 8 8 5 2 1 1 6 6 10 10 12 12 14 10 8 7 8 8 7 8
18 18 18 17 17 16 14 13 13 12 12 11 11 11 11 11 11 10 9 8 8 7 5 6 3 2 1 1 4 9 1 2 2 3 6 8 6 7 6 10 9 9 8 5 6 5 5 4 3 2 1 0 0 1 2 3 1 1 2 3 5 6 4 1 4 3 6 4 7 6 1 0 0 4 3 8 11 11 10 13 13 10 7 8 7 6 6 7
18 18 18 17 17 16 15 14 12 12 11 11 11 11 11 11 10 9 8 7 6 5 5 3 3 2 0 3 10 10 6 0 4 5 2 2 4 3 4 4 7 8 9 7 5 4 3 2 2 2 1 1 1 1 1 2 2 1 2 1 4 6 4 2 1 0 4 2 7 6 3 6 6 7 4 13 13 11 11 11 12 8 7 7 8 6 6 4
19 18 18 17 17 17 16 14 13 11 11 11 11 11 10 10 10 9 7 7 7 6 5 5 1 0 0 6 7 4 4 2 4 4 3 1 4 1 3 2 1 2 1 4 1 3 4 1 1 0 1 2 2 3 1 4 4 2 1 3 0 1 2 3 1 1 4 3 8 1 5 8 5 5 7 12 15 16 13 11 12 9 9 7 7 7 6 4
19 18 18 17 17 17 16 15 13 12 11 11 10 10 10 9 8 8 8 6 5 3 3 3 1 1 0 8 7 11 8 4 3 4 6 5 4 2 3 3 3 2 1 2 0 1 3 4 2 0 2 2 0 1 2 2 4 2 1 2 3 2 4 9 4 5 5 1 2 3 4 8 6 5 12 13 12 10 12 12 14 11 11 8 7 7 6 4
19 18 18 17 17 17 17 15 14 12 11 10 10 10 9 9 8 8 7 7 4 3 3 1 3 2 0 8 2 4 3 1 3 5 5 7 5 2 5 4 2 2 1 1 3 2 0 3 1 3 1 0 4 4 4 4 3 5 2 3 0 0 4 5 0 3 6 1 0 7 4 2 3 6 11 12 14 12 8 11 11 12 8 9 6 5 5 5
19 18 18 18 17 17 17 16 15 12 11 10 11 10 10 9 7 4 3 1 2 2 1 1 2 3 1 3 2 1 1 3 2 1 4 4 6 3 8 3 1 2 3 1 1 3 0 1 1 1 4 2 2 4 1 4 3 2 2 1 2 1 1 1 9 2 2 3 2 1 3 5 4 3 12 11 11 10 8 11 12 12 11 8 5 4 6 5
19 19 18 18 17 17 16 16 16 13 11 10 10 10 8 6 1 4 2 1 2 2 2 2 1 2 9 2 3 1 0 4 1 1 3 0 4 4 3 2 1 3 3 2 1 2 1 1 3 2 1 3 1 4 4 3 5 2 0 2 2 1 2 4 1 2 2 2 4 0 2 5 3 6 11 12 11 10 9 10 11 12 10 6 8 7 6 6
19 19 18 18 17 17 16 16 15 14 10 10 9 5 3 6 2 1 1 1 1 1 1 1 1 2 2 1 4 6 4 4 2 6 3 6 1 2 1 2 5 3 0 2 1 3 1 1 3 2 1 1 3 6 7 5 4 2 2 1 2 2 2 2 6 3 1 2 5 5 7 7 1 9 11 9 11 12 10 7 4 6 9 6 7 7 7 6
19 18 18 18 17 17 16 15 14 13 11 6 4 2 0 1 1 0 1 1 5 7 6 5 8 3 8 9 5 5 3 4 2 2 2 1 8 3 1 1 2 5 3 2 1 1 1 3 4 5 5 6 4 7 6 4 3 2 2 2 3 2 6 5 5 7 1 2 3 5 5 6 5 13 14 11 8 8 10 10 8 8 8 8 7 9 8 6
19 20 20 19 18 17 16 14 12 12 6 4 4 0 1 1 2 3 3 8 8 8 7 7 14 11 9 1 1 4 5 3 1 0 2 2 6 7 2 1 2 0 1 1 2 1 4 2 5 8 9 8 5 3 2 4 2 1 0 1 5 1 5 5 3 4 1 4 0 1 5 6 4 6 8 8 8 10 11 14 10 10 11 9 11 11 9 5
21 20 20 19 18 18 17 15 11 11 0 1 1 1 2 2 1 2 1 7 4 13 11 16 5 7 6 8 3 2 3 2 6 3 1 5 3 5 1 3 3 5 1 1 1 2 1 3 7 8 3 3 3 4 2 4 2 2 2 2 1 6 5 9 4 2 3 1 1 1 5 1 0 4 6 10 12 9 9 9 4 8 11 9 9 10 6 4
21 20 19 20 19 18 18 15 12 7 1 1 1 1 3 2 3 4 1 3 11 5 10 9 4 11 10 3 3 6 3 4 4 2 4 4 2 5 4 3 2 2 1 2 5 0 2 6 11 4 5 4 0 2 4 3 2 4 2 1 4 3 1 3 4 2 7 3 1 3 6 1 3 1 2 2 2 1 1 3 4 5 7 10 10 7 6 6
21 21 21 20 20 20 18 17 5 2 3 5 2 6 3 3 4 3 2 3 6 3 6 6 8 3 8 3 4 9 7 3 3 3 2 6 7 2 4 4 3 2 4 4 6 7 8 3 1 7 5 7 4 3 5 4 3 3 4 3 2 2 2 5 3 4 3 2 5 6 6 2 4 3 3 3 1 2 2 4 3 2 4 3 4 5 6 6
21 21 21 21 20 21 19 14 3 3 3 1 5 6 7 7 4 2 2 4 2 5 2 0 4 4 4 2 4 7 3 0 7 3 5 8 4 3 4 2 3 4 4 4 4 0 9 8 2 2 4 3 4 2 6 7 2 1 5 8 7 3 2 3 2 4 4 1 4 1 3 2 3 4 5 2 0 0 1 6 6 6 8 6 7 6 3 4
21 21 21 20 21 21 19 1 1 1 2 5 4 2 2 3 2 4 3 3 5 5 3 2 2 2 4 1 4 3 5 3 7 6 6 7 7 5 1 1 2 4 3 6 5 3 6 1 5 4 4 4 3 4 3 6 4 2 5 8 5 4 1 1 1 2 1 3 1 1 4 1 5 3 2 1 3 3 0 5 6 7 8 8 8 4 5 6
21 22 21 20 18 18 5 0 1 2 3 3 1 1 3 4 1 3 2 4 3 2 1 0 1 0 1 3 6 4 1 5 1 3 4 3 7 1 5 4 1 1 3 2 3 3 1 0 3 3 4 3 2 2 5 9 7 3 2 6 5 5 1 1 4 2 1 1 2 5 4 6 0 2 1 2 2 3 3 4 6 7 7 9 7 5 5 6
22 21 20 19 16 10 3 4 6 1 6 2 5 5 5 5 1 2 3 3 1 1 0 1 2 1 1 3 7 6 2 1 3 3 3 5 5 1 2 4 8 8 3 2 5 4 4 2 2 1 2 2 3 5 4 8 8 3 3 7 6 3 2 4 2 1 0 1 2 5 5 5 1 3 2 2 2 3 7 7 9 9 8 9 8 7 6 7
22 21 20 18 17 14 3 3 1 5 4 3 6 7 6 2 3 5 3 1 2 1 3 2 3 2 0 2 4 4 1 0 1 1 1 2 1 4 4 6 3 4 0 5 7 2 2 4 3 3 3 3 6 3 8 10 5 3 6 4 6 7 6 3 4 2 1 3 2 1 3 2 2 5 5 3 0 3 7 9 10 10 10 10 9 7 6 5
24 22 20 17 11 0 1 3 8 9 4 8 8 8 2 2 2 2 2 3 1 0 0 1 1 2 3 5 3 3 3 3 1 1 1 3 2 1 1 4 4 2 2 2 2 8 2 5 5 4 4 4 2 0 7 5 2 6 5 7 6 8 4 3 7 2 3 1 3 2 3 2 0 3 5 2 1 2 4 4 4 4 6 7 8 9 8 7
24 24 19 14 3 3 2 4 10 10 7 4 8 3 2 8 3 3 1 5 1 3 1 1 1 3 3 3 3 2 3 0 1 3 1 1 2 1 1 2 5 4 3 4 4 4 3 2 0 2 1 2 3 4 3 1 1 4 1 3 5 3 6 4 4 5 2 2 4 2 1 1 3 1 3 4 8 5 4 8 5 5 11 11 9 8 7 6
26 25 22 10 6 1 3 6 2 3 1 5 4 5 2 3 3 3 5 4 1 2 3 2 1 1 1 1 2 1 3 0 2 2 5 5 5 5 2 5 4 1 3 0 5 4 3 5 2 7 3 7 2 5 2 2 3 6 6 7 6 1 3 1 4 1 2 3 0 3 1 1 3 3 3 5 8 7 4 7 5 4 7 6 6 5 5 5
25 24 25 12 9 8 10 14 2 3 6 4 4 4 3 3 3 5 4 2 2 1 1 2 2 4 0 1 3 4 2 5 3 3 4 1 5 6 2 4 5 6 2 3 2 3 6 3 4 5 4 2 5 6 2 1 1 6 5 5 5 2 2 2 2 0 3 4 3 1 3 1 3 4 1 3 5 6 6 4 6 8 9 5 5 6 6 5
25 22 11 4 7 12 7 2 6 3 1 1 3 4 6 2 5 5 4 3 4 3 2 0 4 3 1 3 2 3 2 3 6 3 2 2 3 3 3 1 4 1 2 1 3 4 0 3 5 3 3 1 3 7 11 7 6 7 3 9 7 8 5 2 3 3 6 6 2 3 2 3 3 1 5 3 5 5 3 2 2 2 4 6 6 8 8 7
25 15 7 3 4 8 12 5 2 3 2 3 6 4 6 7 2 3 2 3 2 2 1 2 2 1 2 1 2 0 1 0 1 3 2 5 4 3 5 6 3 6 3 4 2 2 5 6 6 3 1 2 3 0 5 5 4 0 2 6 7 6 6 2 4 3 3 2 2 1 2 1 1 2 4 2 5 6 5 5 5 6 5 7 8 7 7 6
15 5 0 2 2 4 8 8 4 3 4 6 5 2 8 6 2 3 1 3 1 1 4 4 2 0 1 2 1 1 2 1 0 3 0 3 3 4 2 1 5 8 6 6 4 2 1 1 2 7 1 3 2 3 2 5 3 2 3 3 3 2 11 6 2 2 3 5 3 0 4 2 6 1 2 5 5 6 5 5 5 5 6 8 8 7 7 7
6 7 3 3 3 3 5 8 7 4 4 6 6 6 6 3 6 3 2 1 0 1 2 2 2 0 1 0 1 2 2 3 0 2 2 1 1 3 1 1 4 4 6 8 1 3 4 4 3 2 2 1 2 1 3 2 4 7 2 5 2 3 6 7 3 3 3 4 3 2 1 3 3 2 4 3 3 4 5 4 3 4 5 9 5 5 6 8
6 3 3 3 8 2 6 9 9 4 5 7 7 6 1 3 2 3 0 1 2 3 1 1 4 2 2 0 1 2 2 2 3 2 1 2 1 2 1 2 1 4 5 1 5 2 3 2 2 1 2 5 5 3 6 2 3 4 3 4 3 1 1 2 6 1 1 1 1 0 1 3 4 1 2 0 0 1 2 2 3 5 6 7 5 4 3 6
2 1 2 8 6 3 4 9 6 8 5 5 4 4 3 4 2 1 2 1 2 1 0 3 2 1 1 0 2 1 2 2 1 0 2 1 1 1 0 3 0 1 0 8 4 1 2 3 4 1 2 2 3 4 4 2 3 4 4 3 1 3 1 4 4 4 7 3 2 3 2 3 4 2 1 3 3 2 0 1 3 3 5 7 6 6 3 5
3 1 2 6 4 2 6 3 3 4 4 9 5 3 2 2 3 4 3 1 1 1 3 1 1 2 1 4 1 1 1 4 4 2 2 1 1 1 1 2 2 1 5 4 3 1 2 1 2 1 3 2 1 2 4 5 5 2 3 1 1 3 1 4 2 1 4 6 4 3 1 4 2 3 1 4 4 5 4 3 2 2 1 1 3 6 8 2
1 2 1 4 6 4 1 2 3 6 4 0 1 2 0 1 0 1 4 2 1 2 3 2 2 2 2 4 5 1 0 1 1 3 3 1 2 0 2 2 1 1 1 4 4 0 3 1 6 3 4 2 1 1 2 3 3 6 5 2 6 6 4 4 3 1 2 4 4 4 4 5 5 2 5 5 5 3 1 3 1 1 2 2 2 4 6 1
2 3 4 7 7 2 2 3 1 0 3 3 2 2 1 2 0 2 1 1 4 3 0 1 3 4 2 4 5 1 2 1 1 2 0 3 1 2 2 3 1 1 3 3 2 2 3 4 6 3 0 1 1 3 3 3 4 5 6 1 4 1 6 5 4 4 2 1 4 3 5 2 2 4 5 4 4 2 4 5 3 1 2 3 3 5 4 2
5 0 5 6 7 0 4 1 2 1 0 2 4 2 1 1 2 3 0 1 1 1 0 1 3 2 3 3 1 1 2 1 1 2 1 2 1 1 4 7 3 5 5 1 1 0 3 2 4 1 2 4 3 2 1 2 1 6 6 2 1 1 0 4 2 5 7 2 1 1 1 2 2 4 5 5 2 4 4 4 5 3 3 4 3 4 5 5
1 1 5 8 8 4 8 2 2 4 4 5 2 2 2 2 1 1 1 1 0 3 0 1 3 1 1 2 1 1 1 1 2 1 0 1 2 1 4 6 3 1 1 2 1 2 1 1 7 3 2 4 3 3 4 3 5 3 3 2 1 2 4 2 5 1 6 5 5 7 5 2 1 4 5 10 9 9 7 6 4 4 2 3 4 4 4 4
1 1 1 5 11 11 5 1 1 1 2 2 2 5 7 2 2 2 1 2 1 1 0 0 1 3 1 1 1 1 3 1 1 3 1 2 1 3 6 6 7 5 3 1 4 3 6 0 2 5 7 5 4 3 2 1 1 1 1 2 3 3 4 0 2 1 3 2 3 3 2 4 3 6 11 11 10 9 7 5 5 3 1 4 4 5 4 3
3 1 6 6 6 6 5 3 1 2 1 4 3 2 2 3 3 6 5 3 1 1 3 2 2 1 3 2 3 4 6 5 3 0 4 3 3 3 4 6 7 3 5 10 5 6 3 2 3 5 6 7 4 4 2 2 1 3 0 4 2 1 1 4 5 4 4 3 1 2 4 3 4 10 12 12 9 8 7 8 8 7 7 6 5 6 5 4
1 5 2 5 6 6 3 6 7 5 4 2 3 4 5 3 3 1 6 2 5 1 2 6 4 2 3 3 1 3 3 2 6 5 4 2 3 2 7 4 6 9 6 1 4 5 4 5 4 5 8 0 2 2 0 2 3 2 1 2 4 6 3 4 1 1 2 9 2 0 1 4 3 6 8 9 9 7 7 7 7 8 7 6 4 4 8 9
5 1 1 0 2 4 5 6 10 10 14 9 4 3 4 7 9 3 5 3 0 4 1 3 10 6 1 1 1 3 6 3 5 3 5 3 3 8 4 7 6 9 4 2 2 4 5 4 1 5 4 4 5 6 3 6 5 3 2 2 5 5 6 4 0 1 2 3 6 1 3 5 3 3 5 5 4 4 5 7 4 3 5 7 10 11 11 10
4 1 1 1 2 3 3 1 7 8 12 10 0 8 9 10 9 4 2 4 5 7 5 3 5 10 7 3 3 3 3 2 3 2 2 5 3 3 4 5 2 8 6 2 4 1 6 1 1 5 4 7 8 7 6 9 3 5 9 6 3 9 5 5 4 3 1 3 5 10 11 6 1 3 4 4 3 3 4 4 9 13 10 8 10 11 10 9
4 3 4 5 3 3 5 1 2 4 9 10 5 10 7 9 7 8 7 8 3 5 5 5 4 5 8 9 6 5 1 2 2 3 1 1 3 4 1 1 4 5 5 2 1 2 4 2 6 5 5 1 0 2 0 5 3 3 3 6 4 7 10 6 4 4 9 7 3 8 11 6 2 1 3 4 3 2 11 14 10 7 9 11 12 10 9 9
2 1 0 2 6 6 3 4 3 5 4 6 5 7 7 13 7 7 6 6 7 3 5 4 3 4 5 8 9 5 0 1 2 2 1 0 1 1 2 2 2 4 6 4 3 3 5 2 2 3 5 1 1 1 1 1 2 1 1 1 2 3 5 1 4 1 1 6 4 5 7 3 1 4 4 3 7 13 11 9 10 9 8 11 12 10 9 8
1 1 2 1 4 5 4 5 3 2 5 2 2 4 4 10 8 6 2 6 8 7 5 4 3 2 4 9 8 6 6 3 5 7 4 5 3 4 2 3 2 1 3 2 0 2 1 8 5 4 6 3 1 0 5 7 7 3 2 1 1 2 4 5 3 5 3 2 5 7 5 2 1 1 5 7 10 9 11 8 8 9 8 9 10 9 8 8
Wind_Direction
323 320 320 323 320 317 316 316 316 315 316 316 317 317 317 317 320 318 318 319 318 319 319 321 329 327 325 326 328 328 352 330 313 318 306 241 198 209 182 159 139 201 202 40 10 77 51 45 87 355 64 90 300 108 256 82 159 63 119 112 241 199 127 204 177 186 160 238 296 350 8 21 345 43 170 73 44 67 78 62 58 63 64 95 104 115 130 134
325 321 321 320 319 318 317 315 316 314 315 314 316 316 317 316 316 316 319 319 318 317 321 330 327 324 329 327 330 344 346 312 301 279 239 223 195 198 196 185 79 149 131 111 148 124 114 75 71 79 104 111 319 165 31 223 110 109 121 109 225 166 236 162 204 216 112 268 268 292 337 90 280 125 206 79 347 16 60 57 83 88 93 103 117 125 136 141
326 323 319 322 319 319 316 315 314 314 314 315 314 316 315 315 315 318 318 318 316 320 326 329 325 328 329 330 327 4 349 316 285 278 263 228 210 185 184 159 137 146 136 154 196 148 144 170 171 95 26 101 356 166 56 283 151 220 121 234 250 208 232 247 252 273 187 9 314 318 314 358 286 161 192 133 155 104 135 129 115 130 134 137 132 135 141 144
328 325 320 321 321 320 317 314 313 314 315 314 314 313 314 312 313 313 318 318 319 319 325 323 326 330 328 328 342 11 26 302 321 247 271 240 189 190 165 164 157 153 85 57 161 123 132 90 87 100 76 78 307 24 114 259 114 272 104 200 229 198 154 259 220 244 278 198 278 282 315 332 316 202 99 140 102 234 247 211 163 168 155 146 147 144 146 149
332 327 322 322 322 320 317 314 313 313 316 314 313 312 312 313 314 316 319 318 319 323 324 325 330 325 329 331 345 30 355 45 221 229 251 135 168 176 163 166 163 128 155 136 90 65 78 110 88 48 92 161 356 30 257 272 180 106 213 191 188 142 167 248 214 237 246 113 331 307 339 278 313 42 84 151 137 230 204 207 210 158 156 151 152 152 149 154
335 331 326 325 322 321 318 315 312 312 316 314 311 312 311 313 315 315 314 318 321 323 325 328 327 327 336 342 26 68 77 71 293 280 151 171 157 161 154 156 155 133 120 89 103 93 100 22 71 75 30 88 169 138 264 206 123 233 310 249 220 205 240 255 188 216 174 283 241 323 232 328 55 49 277 177 220 266 267 208 172 161 161 150 140 148 155 161
339 335 332 327 323 320 319 316 313 312 315 313 310 309 311 313 313 313 316 318 322 324 326 327 328 325 1 8 85 45 85 268 313 257 3 121 146 139 137 141 132 128 117 94 92 109 102 107 87 169 97 85 263 174 252 133 56 146 246 354 305 161 214 250 273 179 221 240 257 222 351 305 297 320 179 49 307 288 316 134 151 154 152 149 150 162 165 169
343 340 336 331 327 323 320 318 315 315 315 310 309 308 312 311 309 312 317 320 320 320 324 323 324 333 28 18 0 354 40 254 249 292 76 99 114 131 116 98 121 116 111 142 136 130 118 124 147 157 75 148 216 157 336 96 14 191 273 250 270 153 235 262 261 285 237 240 261 323 293 260 239 215 95 56 2 0 101 122 142 151 150 153 154 159 165 171
344 342 339 337 332 328 322 321 318 313 309 309 307 310 310 310 309 312 315 316 320 321 321 325 326 349 89 85 84 349 266 237 221 178 98 102 123 124 129 122 140 121 133 122 157 163 134 231 131 174 227 92 189 113 270 132 312 203 225 204 292 291 276 262 299 266 248 263 178 182 240 264 139 144 70 219 124 122 130 136 149 150 151 160 166 168 169 174
344 344 342 341 339 334 327 322 318 312 309 306 307 311 309 308 308 309 313 313 316 317 317 323 326 32 46 32 31 32 263 215 34 100 105 114 113 128 77 115 134 121 118 180 88 118 179 206 171 188 124 89 128 203 108 121 233 172 209 218 233 256 326 301 210 273 171 217 168 187 236 266 233 64 263 190 143 142 140 146 153 157 160 161 165 172 176 172
343 344 343 343 342 339 331 325 319 315 311 310 312 310 308 304 306 309 313 315 318 312 311 301 315 53 35 349 110 221 257 52 31 98 121 124 122 136 166 149 147 135 118 127 181 189 206 162 179 107 63 214 130 280 135 218 141 161 189 276 270 307 257 240 296 262 122 280 189 184 225 77 216 66 214 168 154 156 148 155 162 165 156 152 164 178 179 180
343 343 343 343 343 341 337 329 322 319 315 312 307 307 305 305 304 310 312 314 310 318 317 295 0 101 68 109 199 225 304 93 100 112 131 134 146 176 156 161 158 155 145 162 223 217 183 176 122 74 180 141 56 292 250 228 156 243 139 293 293 359 350 273 198 254 165 248 168 181 147 21 110 204 240 147 149 161 157 158 168 160 154 165 173 183 189 185
343 342 342 343 344 343 340 334 326 320 316 310 306 304 306 308 309 310 308 305 308 323 340 321 54 68 24 320 229 236 282 5 112 106 117 63 99 62 122 175 165 158 167 162 205 223 205 103 95 61 227 106 193 150 172 81 288 57 54 150 332 0 341 287 243 120 140 256 140 136 228 262 252 260 229 153 154 158 161 167 171 164 155 166 182 190 186 167
342 342 342 342 343 344 343 339 330 324 318 316 312 310 309 310 309 301 300 294 303 303 283 255 120 337 202 241 272 238 234 183 122 119 187 228 86 20 85 91 180 157 122 161 131 172 163 154 92 192 119 167 239 281 22 336 25 206 260 63 221 21 281 282 85 56 154 211 164 114 226 276 267 270 183 162 164 165 168 173 174 169 173 175 184 186 187 182
341 342 341 341 341 342 344 341 335 326 321 316 313 307 301 298 293 295 294 303 296 259 241 237 43 187 24 267 259 280 240 124 162 224 170 132 126 62 170 121 183 187 174 90 334 51 121 130 116 5 258 268 43 17 323 9 359 29 80 290 327 131 275 300 271 182 176 321 104 126 249 232 264 243 178 169 171 174 166 171 176 175 187 184 178 185 182 175
342 341 340 341 340 341 342 343 337 329 321 316 312 307 300 286 283 290 293 283 306 246 51 187 201 188 32 299 280 5 58 259 264 204 188 146 156 182 170 141 133 182 98 288 225 249 3 115 190 196 239 348 72 89 38 25 339 355 86 256 278 43 263 342 315 206 229 96 111 175 204 337 284 222 184 173 174 180 170 171 178 187 190 189 182 167 171 169
342 340 340 340 339 339 340 341 340 331 325 320 315 307 298 285 276 282 275 270 168 108 146 100 123 205 340 235 280 348 257 247 221 47 159 197 152 135 113 93 175 186 146 237 80 120 305 149 292 51 27 112 139 98 65 18 325 321 16 151 208 177 324 298 304 315 169 145 245 170 132 218 252 171 179 175 181 180 176 180 188 193 197 188 154 168 189 186
341 340 340 339 338 338 337 339 339 334 325 325 317 309 295 277 240 27 50 45 153 143 283 247 188 326 275 350 297 244 135 287 289 177 99 179 129 122 99 148 77 127 97 108 56 162 276 188 43 190 21 358 38 56 113 220 191 218 1 15 327 317 234 244 6 269 55 3 211 177 174 248 281 180 181 177 177 181 187 189 195 198 190 152 186 190 190 194
340 340 339 339 337 336 336 336 339 336 332 331 322 333 42 107 97 85 103 171 117 29 0 236 127 135 211 244 263 305 290 217 120 129 197 124 165 118 56 79 97 135 17 104 249 138 11 77 35 51 213 6 208 157 168 210 149 158 166 190 183 279 294 239 242 276 149 247 222 192 192 219 224 169 189 179 180 186 190 182 189 192 192 182 185 196 195 198
339 339 338 337 336 334 334 335 336 336 339 335 3 348 200 6 16 356 326 216 226 209 250 215 204 273 305 288 286 259 275 25 141 244 106 174 112 128 334 84 16 58 93 176 275 141 141 138 186 200 212 216 224 186 185 189 139 110 104 128 215 208 282 278 277 257 125 98 219 206 195 197 192 184 182 177 157 173 184 191 189 182 178 189 195 203 201 200
337 338 336 336 334 333 330 332 334 335 334 344 328 321 352 135 49 301 254 231 221 239 242 241 193 209 219 120 295 24 23 319 71 301 203 118 101 110 265 65 30 46 305 184 140 298 68 90 254 216 211 197 210 168 113 80 83 156 164 211 292 181 247 242 244 321 294 191 29 208 158 214 206 199 173 153 152 179 185 190 193 187 189 195 204 204 203 186
337 337 336 335 334 330 329 326 330 327 68 354 341 222 308 213 253 234 93 303 269 224 228 240 234 260 262 261 256 117 74 322 324 299 288 145 167 135 283 104 138 193 311 107 22 21 24 205 243 224 179 138 123 132 143 165 142 64 202 202 247 271 245 284 283 311 305 102 309 113 140 258 245 223 188 174 182 194 193 195 195 177 178 198 208 212 196 163
337 336 335 335 332 329 327 323 320 338 316 204 189 217 242 241 334 351 30 279 280 208 217 229 225 239 261 244 218 129 163 203 234 285 180 134 99 192 146 112 160 150 44 98 166 168 293 285 252 206 144 124 84 120 118 72 68 127 103 95 221 234 32 312 289 348 1 49 169 110 91 9 351 347 328 339 172 21 104 154 175 194 206 210 212 214 201 194
336 337 335 334 332 329 322 323 336 130 204 198 206 214 246 317 316 355 116 232 288 309 212 212 196 194 222 180 199 155 159 236 141 268 251 131 154 182 107 156 121 138 197 180 163 159 203 203 96 121 145 155 177 179 124 127 214 257 173 161 254 268 243 157 274 341 310 23 80 83 51 10 2 155 251 248 351 79 119 123 155 218 221 246 272 232 213 199
335 336 336 333 333 329 322 318 85 238 176 198 240 248 253 262 281 188 146 322 331 285 281 334 166 229 222 77 120 155 218 230 209 206 179 141 133 96 223 179 117 215 191 173 105 198 274 251 160 118 169 183 154 163 203 147 210 314 235 189 198 195 191 246 348 26 25 353 10 97 47 354 297 282 220 267 159 82 228 166 194 194 205 222 236 224 203 194
334 334 336 334 332 333 311 0 301 27 311 262 225 215 222 276 324 177 96 74 300 271 336 276 143 292 137 175 158 150 101 235 211 204 166 189 150 144 62 176 140 219 171 139 172 192 210 326 148 192 162 171 179 197 233 158 164 78 268 197 185 163 160 109 6 80 8 120 336 17 132 257 325 302 181 255 215 220 303 209 198 190 199 214 228 200 201 188
332 332 333 335 333 339 9 285 24 281 345 296 69 332 308 298 208 154 21 351 352 252 168 240 104 234 193 195 159 134 81 258 14 93 116 169 171 142 128 224 30 43 154 155 50 261 134 269 86 60 98 110 139 259 242 146 120 221 240 141 124 130 154 162 97 111 196 228 287 40 96 128 185 286 312 303 164 215 253 244 226 211 200 210 215 198 196 197
328 330 331 331 331 334 211 306 338 254 227 255 1 338 332 303 111 57 80 10 320 258 261 248 227 82 290 174 171 171 194 108 122 248 180 198 123 13 178 212 182 182 174 100 182 259 159 168 143 92 98 110 186 210 189 149 139 218 190 143 160 163 155 125 83 96 283 114 257 331 355 75 266 262 342 50 118 234 242 225 223 220 213 209 208 202 196 197
325 327 328 327 326 312 269 189 189 239 235 338 322 329 324 33 97 106 112 97 243 74 292 87 283 103 71 105 206 236 8 247 131 279 61 88 201 135 200 218 178 155 28 150 197 274 282 188 209 148 141 239 231 214 158 175 157 259 147 90 73 61 61 99 94 86 334 70 265 286 1 140 277 286 338 356 175 246 242 232 222 215 213 206 201 206 195 183
323 324 325 325 326 357 156 217 232 238 312 331 319 311 354 57 35 38 10 252 305 328 122 216 110 235 115 140 234 252 257 307 61 71 47 154 219 47 60 139 133 123 203 8 149 219 251 295 166 129 205 206 164 211 182 171 104 120 102 67 25 37 21 12 64 85 65 29 266 256 313 137 143 258 199 102 231 213 283 289 267 224 217 217 209 198 189 183
319 319 320 319 275 248 142 279 252 250 257 290 293 323 67 42 126 104 186 229 335 248 7 10 251 10 118 157 215 289 248 41 346 116 95 75 39 64 177 16 54 54 34 352 305 321 347 357 246 248 105 112 117 78 37 85 99 130 66 109 61 359 11 27 348 42 92 274 259 269 234 166 154 306 308 256 295 289 272 276 265 227 208 205 198 196 186 170
318 316 311 302 227 203 199 228 233 119 108 320 11 50 84 221 12 150 214 303 60 281 87 289 325 100 266 302 129 192 185 283 197 133 153 180 161 169 215 168 165 53 335 224 257 4 310 249 239 318 237 161 120 78 352 31 13 77 75 52 108 247 41 260 7 194 195 187 252 336 287 64 206 211 173 265 270 283 249 247 262 243 254 225 198 178 153 145
317 314 307 286 247 212 237 242 306 329 343 2 60 50 83 106 218 243 264 323 234 60 272 179 297 323 239 77 244 229 176 193 263 214 118 48 136 221 211 180 184 143 202 254 215 14 281 286 332 282 330 184 131 131 159 109 358 112 143 134 99 94 54 191 288 264 317 283 264 343 296 245 259 298 232 273 273 269 277 265 237 222 229 187 140 130 124 119
315 314 303 227 206 216 230 229 250 322 332 53 79 58 57 106 239 224 225 242 237 334 349 344 314 306 158 193 241 152 187 253 156 209 136 154 124 210 278 295 145 118 92 149 163 201 31 346 291 155 229 297 157 171 181 172 169 202 126 145 177 145 155 194 190 174 202 193 283 295 63 231 131 239 329 294 299 317 330 355 50 97 105 109 111 107 107 107
315 304 264 305 269 238 230 211 222 180 105 75 66 102 153 227 228 183 227 275 277 312 298 317 293 23 310 353 292 153 148 251 132 111 145 125 222 175 180 206 236 105 139 134 256 75 192 203 258 233 321 119 168 211 115 94 61 106 159 81 101 207 147 132 205 141 157 129 29 192 210 178 161 286 295 321 360 10 9 33 60 70 79 95 89 93 100 101
323 314 220 267 253 264 188 194 183 157 128 97 106 145 204 190 205 187 241 178 23 2 299 0 75 58 277 310 319 53 342 128 334 97 321 172 201 188 220 220 179 185 138 172 193 165 33 287 283 320 139 175 199 139 238 138 189 229 98 186 206 142 105 94 57 45 96 63 204 278 321 316 305 16 343 359 23 1 9 33 54 82 93 88 93 95 83 65
347 334 28 306 268 209 163 163 169 143 109 124 128 224 201 267 198 177 271 62 224 113 52 66 300 140 291 252 275 333 292 53 302 112 237 190 288 209 195 291 176 170 198 139 294 184 145 239 297 70 39 9 332 151 67 6 141 98 157 230 167 125 116 123 146 338 58 144 241 23 234 301 38 228 324 14 37 337 1 9 44 53 74 90 87 90 99 100
327 318 248 289 320 356 147 156 144 134 106 128 191 217 203 207 206 183 257 36 14 12 86 118 273 100 278 95 299 230 296 118 290 50 194 204 201 163 125 140 200 177 221 117 171 275 115 309 302 272 218 290 352 61 44 357 34 152 192 168 111 208 166 343 98 108 116 208 263 8 315 257 165 245 341 170 117 328 340 12 63 77 81 85 76 57 82 98
269 354 33 343 335 112 140 154 149 140 117 162 204 202 245 226 263 204 226 113 196 92 240 242 182 305 117 221 224 273 232 146 302 13 113 274 120 178 189 173 287 220 280 149 168 159 45 159 287 296 145 333 9 71 175 278 336 24 83 66 340 103 152 125 197 164 119 198 81 273 60 217 214 210 206 254 248 225 166 67 110 126 130 131 141 139 134 127
17 39 338 357 358 73 127 129 98 82 103 181 189 211 203 208 258 263 261 172 304 120 238 220 236 287 312 228 162 223 319 136 152 244 107 266 127 270 232 349 180 346 47 152 113 101 120 121 195 291 302 56 115 2 187 159 128 51 43 345 23 33 213 103 38 78 156 159 174 164 296 285 275 226 217 271 239 230 170 180 151 122 47 176 166 153 109 142
284 92 288 17 28 110 158 35 108 175 159 292 140 207 218 215 325 299 302 180 276 252 203 194 169 203 216 4 318 193 208 115 175 147 187 215 139 238 269 177 250 124 58 53 74 60 87 116 192 308 24 25 246 270 273 233 170 142 146 161 164 119 121 131 212 49 75 103 194 127 228 269 271 284 277 287 278 228 175 102 34 17 65 35 359 49 79 120
44 45 330 359 337 268 63 110 4 165 100 137 184 178 238 203 35 277 299 297 183 252 326 216 243 223 200 219 203 257 135 216 234 108 260 155 335 123 318 22 210 150 118 143 154 224 147 149 94 74 143 68 260 303 326 335 118 116 119 131 138 120 102 95 138 230 48 56 118 153 121 263 268 304 302 279 285 189 141 113 95 58 65 52 34 67 72 60
39 273 258 327 334 110 62 66 302 32 319 241 298 301 280 348 181 231 37 302 265 201 280 193 222 186 254 207 210 163 134 133 156 203 203 100 122 212 277 320 268 44 81 2 39 279 107 73 67 339 326 304 309 304 350 351 34 59 33 71 70 58 174 169 171 180 134 177 69 26 83 238 293 352 344 352 359 77 63 90 109 54 48 55 53 68 74 62
246 282 328 350 355 89 70 75 340 315 313 319 16 296 296 230 175 323 177 358 91 344 178 282 347 84 275 40 80 105 336 122 330 70 308 158 128 189 10 39 43 70 67 198 131 254 111 317 112 96 25 337 344 350 354 329 54 69 85 7 36 91 60 139 107 45 101 207 166 128 190 257 307 354 2 25 20 40 42 40 74 68 20 69 69 60 59 67
308 282 300 313 1 49 63 322 319 245 300 331 322 14 351 345 358 287 172 64 10 33 2 293 199 306 27 43 67 58 40 106 125 8 122 346 352 350 342 36 58 44 23 309 101 106 80 143 88 132 152 162 183 225 241 240 114 300 75 39 46 94 130 106 136 21 124 235 110 135 220 252 269 359 11 15 14 26 26 40 57 82 52 39 48 56 45 55
20 48 320 344 11 25 60 306 286 250 57 359 36 350 34 323 325 12 74 81 48 69 76 292 318 61 50 36 37 34 17 4 92 1 44 339 330 3 354 326 72 81 44 58 39 66 116 56 66 147 158 183 206 214 256 108 41 76 345 45 347 30 7 98 101 84 184 180 134 233 169 146 1 355 356 356 10 18 21 19 30 22 11 24 36 38 30 22
122 55 348 344 333 25 47 23 12 23 12 275 75 346 354 323 272 347 28 99 13 69 33 50 358 36 337 53 37 53 9 343 12 79 7 322 278 273 309 14 57 19 335 83 30 83 63 70 353 77 58 306 216 225 307 91 111 356 66 344 10 18 357 80 87 221 158 110 259 301 242 103 348 342 350 350 358 13 30 32 26 27 23 22 23 37 30 27
57 293 122 235 78 325 359 6 357 21 22 25 51 349 11 17 28 23 324 26 135 37 97 353 27 35 286 214 110 68 339 25 29 25 322 0 347 341 13 13 66 341 359 52 353 111 130 95 315 68 7 26 21 33 43 75 60 81 26 32 40 355 40 79 110 84 96 121 196 213 81 81 336 334 333 339 348 7 33 40 37 46 42 39 44 41 36 31
110 273 216 326 81 12 66 212 17 23 35 14 136 13 20 19 24 1 350 312 25 2 42 90 4 0 12 14 99 102 6 76 11 349 51 329 26 336 21 339 341 19 23 53 25 111 92 71 153 112 73 24 11 19 10 71 57 47 19 360 69 75 58 79 70 2 74 117 136 119 91 86 345 327 333 341 338 39 62 61 51 44 37 49 55 48 43 39
6 15 329 3 96 57 3 26 27 16 58 352 37 2 3 6 19 6 22 23 13 351 8 79 23 9 24 41 55 83 35 99 103 57 318 64 328 41 52 136 285 324 29 45 21 354 98 214 157 125 95 84 312 283 117 91 70 65 20 3 1 89 75 54 90 74 81 61 67 104 92 70 11 22 9 5 19 85 61 50 51 48 47 57 61 52 47 45
253 174 239 28 31 344 345 19 37 51 47 356 43 350 10 2 358 342 60 49 58 18 351 344 343 325 20 43 54 79 213 225 231 247 230 98 76 291 61 272 55 326 351 5 28 328 68 156 30 84 93 313 304 307 315 48 69 107 104 334 346 36 88 337 68 325 113 156 165 95 81 112 38 356 31 39 66 60 64 61 54 46 45 57 59 50 42 33
17 299 70 112 72 346 20 315 5 36 35 326 356 356 2 334 350 6 50 7 30 44 12 342 325 64 15 28 21 343 321 234 238 240 223 222 236 270 270 252 329 325 333 25 246 60 40 139 143 130 109 195 150 79 120 107 83 56 258 305 69 62 122 114 60 49 54 115 116 140 177 208 195 301 90 52 68 69 63 54 64 57 54 63 65 61 54 44